Time,TemperatureF,DewpointF,PressureIn,WindDirection,WindDirectionDegrees,WindSpeedMPH,WindSpeedGustMPH,Humidity,HourlyPrecipIn,Conditions,Clouds,dailyrainin,SoftwareType,DateUTC
2013-04-01 00:00:00,51.6,-99.9,29.94,SW,234,1.1,3.9,-999,0.00,,,0.00,homebrew,2013-04-01 07:00:00,
2013-04-01 00:05:00,51.6,-99.9,29.94,SW,235,1.2,2.2,-999,0.00,,,0.00,homebrew,2013-04-01 07:05:00,
2013-04-01 00:10:00,51.5,-99.9,29.94,SW,226,1.7,2.4,-999,0.00,,,0.00,homebrew,2013-04-01 07:10:00,
2013-04-01 00:15:00,51.9,-99.9,29.94,SW,224,1.8,3.8,-999,0.00,,,0.00,homebrew,2013-04-01 07:15:00,
2013-04-01 00:20:00,51.9,-99.9,29.94,SSW,199,0.6,3.1,-999,0.00,,,0.00,homebrew,2013-04-01 07:20:00,
2013-04-01 00:30:00,51.7,-99.9,29.94,South,191,0.6,1.9,-999,0.00,,,0.00,homebrew,2013-04-01 07:30:00,
2013-04-01 00:35:00,51.6,-99.9,29.94,SSW,201,1.1,1.7,-999,0.00,,,0.00,homebrew,2013-04-01 07:35:00,
2013-04-01 00:40:00,52.0,-99.9,29.95,SW,230,3.2,3.4,-999,0.00,,,0.00,homebrew,2013-04-01 07:40:00,
2013-04-01 00:45:00,51.9,-99.9,29.95,SW,229,2.7,5.3,-999,0.00,,,0.00,homebrew,2013-04-01 07:45:00,
2013-04-01 00:50:00,51.5,-99.9,29.95,WSW,237,2.5,4.2,-999,0.00,,,0.00,homebrew,2013-04-01 07:50:00,
2013-04-01 01:00:00,51.0,-99.9,29.95,WSW,244,2.9,4.8,-999,0.00,,,0.00,homebrew,2013-04-01 08:00:00,
2013-04-01 01:05:00,50.9,-99.9,29.96,WSW,245,2.9,5.2,-999,0.00,,,0.00,homebrew,2013-04-01 08:05:00,
2013-04-01 01:10:00,50.8,-99.9,29.96,SW,232,2.9,4.7,-999,0.00,,,0.00,homebrew,2013-04-01 08:10:00,
2013-04-01 01:15:00,51.0,-99.9,29.96,SW,228,3.8,5.0,-999,0.00,,,0.00,homebrew,2013-04-01 08:15:00,
2013-04-01 01:20:00,51.3,-99.9,29.96,SW,228,3.8,6.0,-999,0.00,,,0.00,homebrew,2013-04-01 08:20:00,
2013-04-01 01:25:00,51.2,-99.9,29.96,SW,223,2.5,6.6,-999,0.00,,,0.00,homebrew,2013-04-01 08:25:00,
2013-04-01 01:35:00,51.1,-99.9,29.96,SW,223,3.5,6.9,-999,0.00,,,0.00,homebrew,2013-04-01 08:35:00,
2013-04-01 01:40:00,51.0,-99.9,29.97,SW,218,3.1,6.6,-999,0.00,,,0.00,homebrew,2013-04-01 08:40:00,
2013-04-01 01:50:00,50.8,-99.9,29.97,SSW,213,2.6,7.6,-999,0.00,,,0.00,homebrew,2013-04-01 08:50:00,
2013-04-01 01:55:00,50.6,-99.9,29.97,SSW,203,2.5,5.6,-999,0.00,,,0.00,homebrew,2013-04-01 08:55:00,
2013-04-01 02:05:00,50.3,-99.9,29.97,SW,214,2.7,5.9,-999,0.00,,,0.00,homebrew,2013-04-01 09:05:00,
2013-04-01 02:10:00,50.1,-99.9,29.97,SSW,212,2.8,6.4,-999,0.00,,,0.00,homebrew,2013-04-01 09:10:00,
2013-04-01 02:20:00,49.8,-99.9,29.97,SW,220,3.8,8.3,-999,0.00,,,0.00,homebrew,2013-04-01 09:20:00,
2013-04-01 02:30:00,49.2,-99.9,29.98,SW,216,3.7,8.6,-999,0.00,,,0.00,homebrew,2013-04-01 09:30:00,
2013-04-01 02:40:00,48.9,-99.9,29.98,SW,226,3.6,7.2,-999,0.00,,,0.00,homebrew,2013-04-01 09:40:00,
2013-04-01 02:45:00,48.7,-99.9,29.98,SW,224,3.3,6.8,-999,0.00,,,0.00,homebrew,2013-04-01 09:45:00,
2013-04-01 02:55:00,48.4,-99.9,29.98,SW,225,3.0,6.3,-999,0.00,,,0.00,homebrew,2013-04-01 09:55:00,
2013-04-01 03:00:00,48.2,-99.9,29.98,SW,225,3.1,6.5,-999,0.00,,,0.00,homebrew,2013-04-01 10:00:00,
2013-04-01 03:05:00,48.1,-99.9,29.98,SW,215,2.2,7.3,-999,0.00,,,0.00,homebrew,2013-04-01 10:05:00,
2013-04-01 03:10:00,48.0,-99.9,29.98,SSW,211,2.0,4.2,-999,0.00,,,0.00,homebrew,2013-04-01 10:10:00,
2013-04-01 03:15:00,48.0,-99.9,29.98,SW,217,2.5,6.2,-999,0.00,,,0.00,homebrew,2013-04-01 10:15:00,
2013-04-01 03:20:00,48.2,-99.9,29.98,SW,223,3.1,8.0,-999,0.00,,,0.00,homebrew,2013-04-01 10:20:00,
2013-04-01 03:25:00,48.2,-99.9,29.98,SW,222,3.2,5.4,-999,0.00,,,0.00,homebrew,2013-04-01 10:25:00,
2013-04-01 03:35:00,48.2,-99.9,29.98,SW,227,2.3,5.8,-999,0.00,,,0.00,homebrew,2013-04-01 10:35:00,
2013-04-01 03:40:00,48.0,-99.9,29.98,WSW,251,3.0,4.6,-999,0.00,,,0.00,homebrew,2013-04-01 10:40:00,
2013-04-01 03:45:00,47.8,-99.9,29.98,WSW,254,2.6,5.9,-999,0.00,,,0.00,homebrew,2013-04-01 10:45:00,
2013-04-01 03:50:00,47.5,-99.9,29.98,WSW,237,2.7,3.9,-999,0.00,,,0.00,homebrew,2013-04-01 10:50:00,
2013-04-01 03:55:00,47.5,-99.9,29.98,WSW,238,3.1,4.9,-999,0.00,,,0.00,homebrew,2013-04-01 10:55:00,
2013-04-01 04:00:00,47.5,-99.9,29.98,WSW,237,3.4,6.4,-999,0.00,,,0.00,homebrew,2013-04-01 11:00:00,
2013-04-01 04:05:00,47.4,-99.9,29.98,WSW,240,3.4,6.1,-999,0.00,,,0.00,homebrew,2013-04-01 11:05:00,
2013-04-01 04:15:00,47.3,-99.9,29.98,WSW,241,3.3,6.1,-999,0.00,,,0.00,homebrew,2013-04-01 11:15:00,
2013-04-01 04:20:00,47.2,-99.9,29.98,WSW,238,3.7,6.3,-999,0.00,,,0.00,homebrew,2013-04-01 11:20:00,
2013-04-01 04:30:00,47.2,-99.9,29.98,WSW,237,4.0,7.8,-999,0.00,,,0.00,homebrew,2013-04-01 11:30:00,
2013-04-01 04:35:00,47.1,-99.9,29.98,WSW,239,3.7,7.5,-999,0.00,,,0.00,homebrew,2013-04-01 11:35:00,
2013-04-01 04:40:00,47.0,-99.9,29.99,SW,231,4.0,8.5,-999,0.00,,,0.00,homebrew,2013-04-01 11:40:00,
2013-04-01 04:50:00,46.9,-99.9,29.99,SW,227,3.4,8.1,-999,0.00,,,0.00,homebrew,2013-04-01 11:50:00,
2013-04-01 04:55:00,47.0,-99.9,29.99,SW,221,3.0,7.7,-999,0.00,,,0.00,homebrew,2013-04-01 11:55:00,
2013-04-01 05:00:00,47.1,-99.9,29.99,SW,215,2.7,7.2,-999,0.00,,,0.00,homebrew,2013-04-01 12:00:00,
2013-04-01 05:05:00,47.1,-99.9,29.99,SW,215,2.3,6.1,-999,0.00,,,0.00,homebrew,2013-04-01 12:05:00,
2013-04-01 05:10:00,47.2,-99.9,29.99,SSW,208,1.4,6.0,-999,0.00,,,0.00,homebrew,2013-04-01 12:10:00,
2013-04-01 05:15:00,47.3,-99.9,29.99,SSW,203,0.4,4.3,-999,0.00,,,0.00,homebrew,2013-04-01 12:15:00,
2013-04-01 05:20:00,47.3,-99.9,29.99,South,177,1.1,1.7,-999,0.00,,,0.00,homebrew,2013-04-01 12:20:00,
2013-04-01 05:25:00,47.3,-99.9,29.99,SSE,147,0.0,6.3,-999,0.00,,,0.00,homebrew,2013-04-01 12:25:00,
2013-04-01 05:30:00,47.4,-99.9,29.99,SSE,156,1.0,0.0,-999,0.00,,,0.00,homebrew,2013-04-01 12:30:00,
2013-04-01 05:40:00,47.5,-99.9,29.99,SSE,166,0.8,3.5,-999,0.00,,,0.00,homebrew,2013-04-01 12:40:00,
2013-04-01 05:45:00,47.4,-99.9,29.99,South,175,0.8,2.1,-999,0.00,,,0.00,homebrew,2013-04-01 12:45:00,
2013-04-01 05:50:00,47.4,-99.9,29.99,South,182,1.2,2.1,-999,0.00,,,0.00,homebrew,2013-04-01 12:50:00,
2013-04-01 05:55:00,47.3,-99.9,30.00,South,182,2.4,8.8,-999,0.00,,,0.00,homebrew,2013-04-01 12:55:00,
2013-04-01 06:00:00,47.3,-99.9,30.00,South,180,0.9,6.9,-999,0.00,,,0.00,homebrew,2013-04-01 13:00:00,
2013-04-01 06:05:00,47.3,-99.9,30.00,South,178,1.1,6.0,-999,0.00,,,0.00,homebrew,2013-04-01 13:05:00,
2013-04-01 06:10:00,47.3,-99.9,30.01,South,172,0.3,3.6,-999,0.00,,,0.00,homebrew,2013-04-01 13:10:00,
2013-04-01 06:15:00,47.3,-99.9,30.01,South,179,0.2,3.4,-999,0.00,,,0.00,homebrew,2013-04-01 13:15:00,
2013-04-01 06:25:00,47.2,-99.9,30.01,SSE,157,0.2,1.9,-999,0.00,,,0.00,homebrew,2013-04-01 13:25:00,
2013-04-01 06:30:00,47.2,-99.9,30.01,South,176,0.8,2.7,-999,0.00,,,0.00,homebrew,2013-04-01 13:30:00,
2013-04-01 06:35:00,47.2,-99.9,30.01,South,191,0.6,4.1,-999,0.00,,,0.00,homebrew,2013-04-01 13:35:00,
2013-04-01 06:40:00,47.2,-99.9,30.01,SSE,149,0.4,3.5,-999,0.00,,,0.00,homebrew,2013-04-01 13:40:00,
2013-04-01 06:45:00,47.3,-99.9,30.01,SSE,167,0.8,2.2,-999,0.00,,,0.00,homebrew,2013-04-01 13:45:00,
2013-04-01 06:55:00,47.3,-99.9,30.01,SE,140,0.2,4.8,-999,0.00,,,0.00,homebrew,2013-04-01 13:55:00,
2013-04-01 07:00:00,47.4,-99.9,30.01,SSE,147,0.6,1.9,-999,0.00,,,0.00,homebrew,2013-04-01 14:00:00,
2013-04-01 07:05:00,47.4,-99.9,30.02,South,170,0.8,4.3,-999,0.00,,,0.00,homebrew,2013-04-01 14:05:00,
2013-04-01 07:10:00,47.5,-99.9,30.02,South,175,0.2,3.0,-999,0.00,,,0.00,homebrew,2013-04-01 14:10:00,
2013-04-01 07:15:00,47.5,-99.9,30.02,South,175,1.2,4.8,-999,0.00,,,0.00,homebrew,2013-04-01 14:15:00,
2013-04-01 07:20:00,47.5,-99.9,30.02,SSE,154,1.0,3.4,-999,0.00,,,0.00,homebrew,2013-04-01 14:20:00,
2013-04-01 07:25:00,47.6,-99.9,30.02,SSW,196,1.5,6.6,-999,0.00,,,0.00,homebrew,2013-04-01 14:25:00,
2013-04-01 07:35:00,47.8,-99.9,30.02,South,172,0.9,4.0,-999,0.00,,,0.00,homebrew,2013-04-01 14:35:00,
2013-04-01 07:40:00,47.9,-99.9,30.03,SSW,199,0.9,4.8,-999,0.00,,,0.00,homebrew,2013-04-01 14:40:00,
2013-04-01 07:45:00,48.0,-99.9,30.03,SSE,153,0.9,2.6,-999,0.00,,,0.00,homebrew,2013-04-01 14:45:00,
2013-04-01 07:50:00,48.0,-99.9,30.03,SSE,162,0.3,4.8,-999,0.00,,,0.00,homebrew,2013-04-01 14:50:00,
2013-04-01 07:55:00,48.2,-99.9,30.03,South,171,0.2,2.5,-999,0.00,,,0.00,homebrew,2013-04-01 14:55:00,
2013-04-01 08:00:00,48.3,-99.9,30.03,South,181,1.0,1.9,-999,0.00,,,0.00,homebrew,2013-04-01 15:00:00,
2013-04-01 08:05:00,48.3,-99.9,30.04,South,187,2.6,4.9,-999,0.00,,,0.00,homebrew,2013-04-01 15:05:00,
2013-04-01 08:10:00,48.4,-99.9,30.03,South,170,0.8,6.7,-999,0.00,,,0.00,homebrew,2013-04-01 15:10:00,
2013-04-01 08:15:00,48.4,-99.9,30.04,South,185,2.0,4.3,-999,0.00,,,0.00,homebrew,2013-04-01 15:15:00,
2013-04-01 08:25:00,48.6,-99.9,30.04,SSE,160,1.1,3.9,-999,0.00,,,0.00,homebrew,2013-04-01 15:25:00,
2013-04-01 08:30:00,48.6,-99.9,30.04,South,180,1.9,4.3,-999,0.00,,,0.00,homebrew,2013-04-01 15:30:00,
2013-04-01 08:35:00,48.6,-99.9,30.04,South,170,2.6,5.5,-999,0.00,,,0.00,homebrew,2013-04-01 15:35:00,
2013-04-01 08:40:00,48.7,-99.9,30.04,South,172,0.9,8.5,-999,0.00,,,0.00,homebrew,2013-04-01 15:40:00,
2013-04-01 08:45:00,48.9,-99.9,30.04,South,178,0.7,4.3,-999,0.00,,,0.00,homebrew,2013-04-01 15:45:00,
2013-04-01 08:50:00,49.0,-99.9,30.04,South,176,1.9,2.7,-999,0.00,,,0.00,homebrew,2013-04-01 15:50:00,
2013-04-01 08:55:00,49.1,-99.9,30.04,SE,131,0.4,6.2,-999,0.00,,,0.00,homebrew,2013-04-01 15:55:00,
2013-04-01 09:00:00,49.3,-99.9,30.05,South,173,2.2,4.8,-999,0.00,,,0.00,homebrew,2013-04-01 16:00:00,
2013-04-01 09:05:00,49.2,-99.9,30.04,South,169,2.4,5.5,-999,0.00,,,0.00,homebrew,2013-04-01 16:05:00,
2013-04-01 09:15:00,49.4,-99.9,30.05,South,175,1.3,3.6,-999,0.00,,,0.00,homebrew,2013-04-01 16:15:00,
2013-04-01 09:20:00,49.5,-99.9,30.05,South,174,1.5,4.8,-999,0.00,,,0.00,homebrew,2013-04-01 16:20:00,
2013-04-01 09:30:00,49.4,-99.9,30.05,SSW,195,2.7,8.9,-999,0.00,,,0.00,homebrew,2013-04-01 16:30:00,
2013-04-01 09:35:00,49.5,-99.9,30.05,South,185,2.0,9.8,-999,0.00,,,0.00,homebrew,2013-04-01 16:35:00,
2013-04-01 09:40:00,49.6,-99.9,30.06,South,169,2.1,6.2,-999,0.00,,,0.00,homebrew,2013-04-01 16:40:00,
2013-04-01 09:45:00,49.7,-99.9,30.06,South,175,2.5,5.6,-999,0.00,,,0.00,homebrew,2013-04-01 16:45:00,
2013-04-01 09:50:00,49.7,-99.9,30.06,South,191,2.2,6.0,-999,0.00,,,0.00,homebrew,2013-04-01 16:50:00,
2013-04-01 10:00:00,50.0,-99.9,30.06,SE,144,0.1,6.7,-999,0.00,,,0.00,homebrew,2013-04-01 17:00:00,
2013-04-01 10:05:00,50.2,-99.9,30.06,South,176,1.8,2.4,-999,0.00,,,0.00,homebrew,2013-04-01 17:05:00,
2013-04-01 10:10:00,49.9,-99.9,30.06,South,188,2.2,8.8,-999,0.00,,,0.00,homebrew,2013-04-01 17:10:00,
2013-04-01 10:15:00,49.7,-99.9,30.06,SSW,192,3.0,5.0,-999,0.00,,,0.00,homebrew,2013-04-01 17:15:00,
2013-04-01 10:20:00,49.6,-99.9,30.06,South,176,3.2,7.6,-999,0.00,,,0.00,homebrew,2013-04-01 17:20:00,
2013-04-01 10:25:00,49.7,-99.9,30.06,South,181,2.8,9.0,-999,0.00,,,0.00,homebrew,2013-04-01 17:25:00,
2013-04-01 10:35:00,49.7,-99.9,30.07,South,169,1.9,9.4,-999,0.00,,,0.00,homebrew,2013-04-01 17:35:00,
2013-04-01 10:40:00,50.1,-99.9,30.07,SSE,164,1.6,5.0,-999,0.00,,,0.00,homebrew,2013-04-01 17:40:00,
2013-04-01 10:45:00,50.2,-99.9,30.07,South,170,1.6,3.6,-999,0.00,,,0.00,homebrew,2013-04-01 17:45:00,
2013-04-01 10:50:00,50.3,-99.9,30.07,South,173,1.7,3.8,-999,0.00,,,0.00,homebrew,2013-04-01 17:50:00,
2013-04-01 10:55:00,50.4,-99.9,30.07,South,181,2.1,4.7,-999,0.00,,,0.00,homebrew,2013-04-01 17:55:00,
2013-04-01 11:00:00,50.4,-99.9,30.07,South,175,1.6,6.3,-999,0.00,,,0.00,homebrew,2013-04-01 18:00:00,
2013-04-01 11:10:00,50.8,-99.9,30.07,SSE,166,1.8,3.3,-999,0.00,,,0.00,homebrew,2013-04-01 18:10:00,
2013-04-01 11:15:00,50.8,-99.9,30.07,SSE,154,1.0,4.7,-999,0.00,,,0.00,homebrew,2013-04-01 18:15:00,
2013-04-01 11:25:00,51.5,-99.9,30.07,SSE,153,1.4,2.5,-999,0.00,,,0.00,homebrew,2013-04-01 18:25:00,
2013-04-01 11:30:00,51.5,-99.9,30.07,South,184,1.9,6.9,-999,0.00,,,0.00,homebrew,2013-04-01 18:30:00,
2013-04-01 11:40:00,51.7,-99.9,30.08,South,178,1.5,5.7,-999,0.00,,,0.00,homebrew,2013-04-01 18:40:00,
2013-04-01 11:45:00,52.0,-99.9,30.08,South,182,1.7,3.9,-999,0.00,,,0.00,homebrew,2013-04-01 18:45:00,
2013-04-01 11:50:00,52.2,-99.9,30.08,SSE,165,1.8,5.3,-999,0.00,,,0.00,homebrew,2013-04-01 18:50:00,
2013-04-01 11:55:00,52.5,-99.9,30.08,SSE,159,1.3,4.7,-999,0.00,,,0.00,homebrew,2013-04-01 18:55:00,
2013-04-01 12:00:00,52.8,-99.9,30.08,South,181,2.3,3.5,-999,0.00,,,0.00,homebrew,2013-04-01 19:00:00,
2013-04-01 12:05:00,52.8,-99.9,30.08,SSW,193,2.1,5.7,-999,0.00,,,0.00,homebrew,2013-04-01 19:05:00,
2013-04-01 12:15:00,53.3,-99.9,30.08,SSE,150,0.5,3.8,-999,0.00,,,0.00,homebrew,2013-04-01 19:15:00,
2013-04-01 12:20:00,53.6,-99.9,30.08,South,176,2.2,2.9,-999,0.00,,,0.00,homebrew,2013-04-01 19:20:00,
2013-04-01 12:30:00,54.1,-99.9,30.07,SSE,156,0.9,5.9,-999,0.00,,,0.00,homebrew,2013-04-01 19:30:00,
2013-04-01 12:35:00,54.6,-99.9,30.07,SSE,161,2.1,5.6,-999,0.00,,,0.00,homebrew,2013-04-01 19:35:00,
2013-04-01 12:40:00,54.5,-99.9,30.07,South,190,1.8,5.0,-999,0.00,,,0.00,homebrew,2013-04-01 19:40:00,
2013-04-01 12:45:00,54.8,-99.9,30.07,SSW,195,1.8,3.1,-999,0.00,,,0.00,homebrew,2013-04-01 19:45:00,
2013-04-01 12:50:00,55.2,-99.9,30.07,South,173,1.5,4.6,-999,0.00,,,0.00,homebrew,2013-04-01 19:50:00,
2013-04-01 12:55:00,55.4,-99.9,30.07,South,170,1.4,4.5,-999,0.00,,,0.00,homebrew,2013-04-01 19:55:00,
2013-04-01 13:05:00,56.1,-99.9,30.07,South,171,3.3,7.1,-999,0.00,,,0.00,homebrew,2013-04-01 20:05:00,
2013-04-01 13:10:00,56.3,-99.9,30.07,South,176,1.9,9.1,-999,0.00,,,0.00,homebrew,2013-04-01 20:10:00,
2013-04-01 13:20:00,56.4,-99.9,30.07,SSW,213,4.3,4.9,-999,0.00,,,0.00,homebrew,2013-04-01 20:20:00,
2013-04-01 13:25:00,56.2,-99.9,30.07,South,181,1.7,9.1,-999,0.00,,,0.00,homebrew,2013-04-01 20:25:00,
2013-04-01 13:35:00,57.2,-99.9,30.07,SSW,209,4.2,8.8,-999,0.00,,,0.00,homebrew,2013-04-01 20:35:00,
2013-04-01 13:40:00,57.5,-99.9,30.07,SSW,210,4.8,10.6,-999,0.00,,,0.00,homebrew,2013-04-01 20:40:00,
2013-04-01 13:45:00,57.8,-99.9,30.07,SW,216,4.0,12.5,-999,0.00,,,0.00,homebrew,2013-04-01 20:45:00,
2013-04-01 13:55:00,59.8,-99.9,30.07,SSW,211,2.5,11.4,-999,0.00,,,0.00,homebrew,2013-04-01 20:55:00,
2013-04-01 14:00:00,60.4,-99.9,30.07,SW,220,4.4,8.3,-999,0.00,,,0.00,homebrew,2013-04-01 21:00:00,
2013-04-01 14:05:00,60.4,-99.9,30.06,SW,217,4.1,9.8,-999,0.00,,,0.00,homebrew,2013-04-01 21:05:00,
2013-04-01 14:10:00,60.1,-99.9,30.06,SW,225,4.0,9.1,-999,0.00,,,0.00,homebrew,2013-04-01 21:10:00,
2013-04-01 14:15:00,60.6,-99.9,30.06,SSW,213,3.8,8.6,-999,0.00,,,0.00,homebrew,2013-04-01 21:15:00,
2013-04-01 14:20:00,60.4,-99.9,30.06,SW,219,4.9,8.8,-999,0.00,,,0.00,homebrew,2013-04-01 21:20:00,
2013-04-01 14:25:00,59.9,-99.9,30.06,SSW,213,4.9,10.0,-999,0.00,,,0.00,homebrew,2013-04-01 21:25:00,
2013-04-01 14:30:00,60.8,-99.9,30.06,SW,215,4.0,10.3,-999,0.00,,,0.00,homebrew,2013-04-01 21:30:00,
2013-04-01 14:35:00,61.7,-99.9,30.06,SSW,210,4.1,10.9,-999,0.00,,,0.00,homebrew,2013-04-01 21:35:00,
2013-04-01 14:45:00,59.5,-99.9,30.06,SW,219,4.8,11.9,-999,0.00,,,0.00,homebrew,2013-04-01 21:45:00,
2013-04-01 14:50:00,59.9,-99.9,30.06,SSW,202,4.0,8.9,-999,0.00,,,0.00,homebrew,2013-04-01 21:50:00,
2013-04-01 15:00:00,60.1,-99.9,30.06,SW,224,5.2,15.7,-999,0.00,,,0.00,homebrew,2013-04-01 22:00:00,
2013-04-01 15:05:00,59.6,-99.9,30.06,SW,223,4.5,10.6,-999,0.00,,,0.00,homebrew,2013-04-01 22:05:00,
2013-04-01 15:15:00,60.3,-99.9,30.06,SW,224,4.6,11.7,-999,0.00,,,0.00,homebrew,2013-04-01 22:15:00,
2013-04-01 15:20:00,61.2,-99.9,30.06,SW,230,5.0,10.6,-999,0.00,,,0.00,homebrew,2013-04-01 22:20:00,
2013-04-01 15:30:00,62.2,-99.9,30.06,SSW,204,3.3,7.5,-999,0.00,,,0.00,homebrew,2013-04-01 22:30:00,
2013-04-01 15:35:00,62.2,-99.9,30.06,SSW,207,4.0,9.5,-999,0.00,,,0.00,homebrew,2013-04-01 22:35:00,
2013-04-01 15:40:00,61.4,-99.9,30.06,SW,229,4.8,9.3,-999,0.00,,,0.00,homebrew,2013-04-01 22:40:00,
2013-04-01 15:50:00,62.5,-99.9,30.06,SW,231,5.7,10.3,-999,0.00,,,0.00,homebrew,2013-04-01 22:50:00,
2013-04-01 16:00:00,62.7,-99.9,30.06,SW,218,4.8,10.1,-999,0.00,,,0.00,homebrew,2013-04-01 23:00:00,
2013-04-01 16:05:00,63.0,-99.9,30.06,SSW,212,3.8,11.3,-999,0.00,,,0.00,homebrew,2013-04-01 23:05:00,
2013-04-01 16:10:00,63.7,-99.9,30.06,SW,217,3.4,7.3,-999,0.00,,,0.00,homebrew,2013-04-01 23:10:00,
2013-04-01 16:15:00,63.2,-99.9,30.05,SW,215,4.1,11.0,-999,0.00,,,0.00,homebrew,2013-04-01 23:15:00,
2013-04-01 16:20:00,63.6,-99.9,30.06,SW,216,3.6,11.0,-999,0.00,,,0.00,homebrew,2013-04-01 23:20:00,
2013-04-01 16:25:00,64.2,-99.9,30.05,South,175,2.3,8.3,-999,0.00,,,0.00,homebrew,2013-04-01 23:25:00,
2013-04-01 16:30:00,64.2,-99.9,30.06,SW,223,3.9,8.1,-999,0.00,,,0.00,homebrew,2013-04-01 23:30:00,
2013-04-01 16:35:00,63.9,-99.9,30.05,SW,216,4.0,8.4,-999,0.00,,,0.00,homebrew,2013-04-01 23:35:00,
2013-04-01 16:40:00,63.8,-99.9,30.05,SSW,200,3.0,8.8,-999,0.00,,,0.00,homebrew,2013-04-01 23:40:00,
2013-04-01 16:45:00,63.7,-99.9,30.06,South,187,3.1,9.0,-999,0.00,,,0.00,homebrew,2013-04-01 23:45:00,
2013-04-01 16:50:00,64.0,-99.9,30.06,SSW,195,2.8,10.3,-999,0.00,,,0.00,homebrew,2013-04-01 23:50:00,
2013-04-01 16:55:00,64.2,-99.9,30.05,SSW,207,2.8,8.4,-999,0.00,,,0.00,homebrew,2013-04-01 23:55:00,
2013-04-01 17:00:00,63.4,-99.9,30.05,SW,225,5.7,14.8,-999,0.00,,,0.00,homebrew,2013-04-02 00:00:00,
2013-04-01 17:05:00,62.9,-99.9,30.05,SSW,213,4.2,12.6,-999,0.00,,,0.00,homebrew,2013-04-02 00:05:00,
2013-04-01 17:15:00,63.0,-99.9,30.05,WSW,241,3.6,8.0,-999,0.00,,,0.00,homebrew,2013-04-02 00:15:00,
2013-04-01 17:20:00,63.2,-99.9,30.05,WSW,237,3.4,6.7,-999,0.00,,,0.00,homebrew,2013-04-02 00:20:00,
2013-04-01 17:25:00,63.2,-99.9,30.05,SW,217,3.2,7.7,-999,0.00,,,0.00,homebrew,2013-04-02 00:25:00,
2013-04-01 17:30:00,62.9,-99.9,30.05,SW,224,2.2,8.0,-999,0.00,,,0.00,homebrew,2013-04-02 00:30:00,
2013-04-01 17:35:00,62.7,-99.9,30.05,SW,233,3.8,8.8,-999,0.00,,,0.00,homebrew,2013-04-02 00:35:00,
2013-04-01 17:40:00,62.8,-99.9,30.05,SSW,206,1.9,8.3,-999,0.00,,,0.00,homebrew,2013-04-02 00:40:00,
2013-04-01 17:45:00,62.9,-99.9,30.05,SW,221,2.8,8.1,-999,0.00,,,0.00,homebrew,2013-04-02 00:45:00,
2013-04-01 17:50:00,63.0,-99.9,30.05,SW,232,2.1,5.6,-999,0.00,,,0.00,homebrew,2013-04-02 00:50:00,
2013-04-01 17:55:00,62.7,-99.9,30.05,SW,220,3.2,5.9,-999,0.00,,,0.00,homebrew,2013-04-02 00:55:00,
2013-04-01 18:05:00,62.9,-99.9,30.05,SSW,213,3.3,6.2,-999,0.00,,,0.00,homebrew,2013-04-02 01:05:00,
2013-04-01 18:15:00,62.2,-99.9,30.05,SW,220,3.4,7.0,-999,0.00,,,0.00,homebrew,2013-04-02 01:15:00,
2013-04-01 18:20:00,61.4,-99.9,30.05,SSW,202,1.5,6.9,-999,0.00,,,0.00,homebrew,2013-04-02 01:20:00,
2013-04-01 18:30:00,60.4,-99.9,30.05,SW,226,3.2,6.8,-999,0.00,,,0.00,homebrew,2013-04-02 01:30:00,
2013-04-01 18:35:00,60.2,-99.9,30.06,SW,234,3.0,6.2,-999,0.00,,,0.00,homebrew,2013-04-02 01:35:00,
2013-04-01 18:40:00,60.0,-99.9,30.05,WSW,237,3.6,6.5,-999,0.00,,,0.00,homebrew,2013-04-02 01:40:00,
2013-04-01 18:45:00,59.9,-99.9,30.06,SW,232,3.7,7.1,-999,0.00,,,0.00,homebrew,2013-04-02 01:45:00,
2013-04-01 18:55:00,59.4,-99.9,30.06,SW,222,3.3,6.4,-999,0.00,,,0.00,homebrew,2013-04-02 01:55:00,
2013-04-01 19:05:00,59.1,-99.9,30.06,SSW,210,1.9,6.5,-999,0.00,,,0.00,homebrew,2013-04-02 02:05:00,
2013-04-01 19:10:00,58.9,-99.9,30.06,South,189,1.3,4.8,-999,0.00,,,0.00,homebrew,2013-04-02 02:10:00,
2013-04-01 19:15:00,58.7,-99.9,30.06,SSW,206,1.6,4.2,-999,0.00,,,0.00,homebrew,2013-04-02 02:15:00,
2013-04-01 19:25:00,58.3,-99.9,30.06,SW,221,3.6,7.6,-999,0.00,,,0.00,homebrew,2013-04-02 02:25:00,
2013-04-01 19:30:00,58.5,-99.9,30.06,SW,226,3.6,7.3,-999,0.00,,,0.00,homebrew,2013-04-02 02:30:00,
2013-04-01 19:35:00,58.3,-99.9,30.06,SW,235,3.0,7.3,-999,0.00,,,0.00,homebrew,2013-04-02 02:35:00,
2013-04-01 19:40:00,58.0,-99.9,30.06,SW,233,2.3,4.7,-999,0.00,,,0.00,homebrew,2013-04-02 02:40:00,
2013-04-01 19:45:00,57.4,-99.9,30.06,SW,227,1.9,5.2,-999,0.00,,,0.00,homebrew,2013-04-02 02:45:00,
2013-04-01 19:50:00,57.0,-99.9,30.07,SW,223,2.7,4.8,-999,0.00,,,0.00,homebrew,2013-04-02 02:50:00,
2013-04-01 20:00:00,56.1,-99.9,30.07,South,190,1.3,3.0,-999,0.00,,,0.00,homebrew,2013-04-02 03:00:00,
2013-04-01 20:05:00,55.7,-99.9,30.07,South,185,1.4,3.2,-999,0.00,,,0.00,homebrew,2013-04-02 03:05:00,
2013-04-01 20:15:00,55.1,-99.9,30.07,SW,222,2.6,3.9,-999,0.00,,,0.00,homebrew,2013-04-02 03:15:00,
2013-04-01 20:20:00,54.9,-99.9,30.08,SW,224,2.8,5.8,-999,0.00,,,0.00,homebrew,2013-04-02 03:20:00,
2013-04-01 20:30:00,54.6,-99.9,30.08,SW,232,3.5,5.0,-999,0.00,,,0.00,homebrew,2013-04-02 03:30:00,
2013-04-01 20:35:00,54.4,-99.9,30.08,SSW,209,2.2,5.9,-999,0.00,,,0.00,homebrew,2013-04-02 03:35:00,
2013-04-01 20:40:00,54.1,-99.9,30.08,SW,223,2.9,5.0,-999,0.00,,,0.00,homebrew,2013-04-02 03:40:00,
2013-04-01 20:45:00,53.9,-99.9,30.09,SSW,203,2.5,6.0,-999,0.00,,,0.00,homebrew,2013-04-02 03:45:00,
2013-04-01 20:55:00,53.3,-99.9,30.09,SSW,207,2.0,5.0,-999,0.00,,,0.00,homebrew,2013-04-02 03:55:00,
2013-04-01 21:00:00,53.2,-99.9,30.09,SSW,208,3.3,7.5,-999,0.00,,,0.00,homebrew,2013-04-02 04:00:00,
2013-04-01 21:05:00,53.1,-99.9,30.10,SSW,204,2.2,8.6,-999,0.00,,,0.00,homebrew,2013-04-02 04:05:00,
2013-04-01 21:10:00,52.9,-99.9,30.10,SSW,207,2.8,6.3,-999,0.00,,,0.00,homebrew,2013-04-02 04:10:00,
2013-04-01 21:15:00,52.8,-99.9,30.10,SSW,197,2.3,6.8,-999,0.00,,,0.00,homebrew,2013-04-02 04:15:00,
2013-04-01 21:20:00,52.4,-99.9,30.10,SW,220,3.3,7.1,-999,0.00,,,0.00,homebrew,2013-04-02 04:20:00,
2013-04-01 21:25:00,52.2,-99.9,30.10,SW,224,2.8,8.0,-999,0.00,,,0.00,homebrew,2013-04-02 04:25:00,
2013-04-01 21:30:00,52.1,-99.9,30.10,SSW,200,1.3,5.0,-999,0.00,,,0.00,homebrew,2013-04-02 04:30:00,
2013-04-01 21:40:00,52.0,-99.9,30.11,SW,224,2.6,5.4,-999,0.00,,,0.00,homebrew,2013-04-02 04:40:00,
2013-04-01 21:45:00,52.1,-99.9,30.11,SW,215,3.1,5.7,-999,0.00,,,0.00,homebrew,2013-04-02 04:45:00,
2013-04-01 21:50:00,52.0,-99.9,30.11,SSW,213,2.6,7.0,-999,0.00,,,0.00,homebrew,2013-04-02 04:50:00,
2013-04-01 21:55:00,52.0,-99.9,30.11,SW,214,2.9,7.5,-999,0.00,,,0.00,homebrew,2013-04-02 04:55:00,
2013-04-01 22:00:00,52.0,-99.9,30.11,SSW,200,2.2,8.3,-999,0.00,,,0.00,homebrew,2013-04-02 05:00:00,
2013-04-01 22:05:00,52.0,-99.9,30.11,SSW,192,2.0,6.3,-999,0.00,,,0.00,homebrew,2013-04-02 05:05:00,
2013-04-01 22:10:00,51.9,-99.9,30.11,South,179,1.4,8.6,-999,0.00,,,0.00,homebrew,2013-04-02 05:10:00,
2013-04-01 22:15:00,51.8,-99.9,30.11,SSW,209,2.4,4.9,-999,0.00,,,0.00,homebrew,2013-04-02 05:15:00,
2013-04-01 22:25:00,51.8,-99.9,30.12,SW,224,4.4,7.9,-999,0.00,,,0.00,homebrew,2013-04-02 05:25:00,
2013-04-01 22:30:00,51.9,-99.9,30.12,South,187,1.7,9.0,-999,0.00,,,0.00,homebrew,2013-04-02 05:30:00,
2013-04-01 22:35:00,51.8,-99.9,30.12,SSW,192,2.1,3.8,-999,0.00,,,0.00,homebrew,2013-04-02 05:35:00,
2013-04-01 22:40:00,51.6,-99.9,30.12,SSW,200,2.6,7.6,-999,0.00,,,0.00,homebrew,2013-04-02 05:40:00,
2013-04-01 22:45:00,51.2,-99.9,30.12,SSW,202,2.9,7.4,-999,0.00,,,0.00,homebrew,2013-04-02 05:45:00,
2013-04-01 22:50:00,51.0,-99.9,30.12,SSW,202,1.9,5.1,-999,0.00,,,0.00,homebrew,2013-04-02 05:50:00,
2013-04-01 22:55:00,50.7,-99.9,30.12,SSW,196,2.1,6.7,-999,0.00,,,0.00,homebrew,2013-04-02 05:55:00,
2013-04-01 23:00:00,50.6,-99.9,30.12,SSW,209,2.5,4.3,-999,0.00,,,0.00,homebrew,2013-04-02 06:00:00,
2013-04-01 23:05:00,50.4,-99.9,30.12,SSW,193,2.9,6.6,-999,0.00,,,0.00,homebrew,2013-04-02 06:05:00,
2013-04-01 23:15:00,50.3,-99.9,30.12,SSW,202,3.2,6.0,-999,0.00,,,0.00,homebrew,2013-04-02 06:15:00,
2013-04-01 23:20:00,50.4,-99.9,30.12,SW,214,3.4,8.5,-999,0.00,,,0.00,homebrew,2013-04-02 06:20:00,
2013-04-01 23:25:00,50.4,-99.9,30.12,SW,217,3.3,9.4,-999,0.00,,,0.00,homebrew,2013-04-02 06:25:00,
2013-04-01 23:35:00,50.4,-99.9,30.12,SSW,211,3.4,10.4,-999,0.00,,,0.00,homebrew,2013-04-02 06:35:00,
2013-04-01 23:40:00,50.5,-99.9,30.12,SSW,210,3.4,11.0,-999,0.00,,,0.00,homebrew,2013-04-02 06:40:00,
2013-04-01 23:45:00,50.6,-99.9,30.12,SSW,196,2.7,10.0,-999,0.00,,,0.00,homebrew,2013-04-02 06:45:00,
2013-04-01 23:50:00,50.6,-99.9,30.12,SSW,204,2.8,9.6,-999,0.00,,,0.00,homebrew,2013-04-02 06:50:00,
2013-04-01 23:55:00,50.7,-99.9,30.12,SSW,213,2.6,8.3,-999,0.00,,,0.00,homebrew,2013-04-02 06:55:00,